Simultaneous Nadir Overpasses (SNOs) Predictions

Prediction of SNOs between LANDSAT-8 and NOAA-19 Satellite Orbit:

Table of predicted SNOs for the next 14.0 days since TLE Epoch: 9/18/2021
Index Date (LANDSAT-8) Time (LANDSAT-8) Lat,Lon (LANDSAT-8) SZA (LANDSAT-8 ) Date (NOAA-19) Time (NOAA-19) Lat,Lon (NOAA-19) SZA (NOAA-19 ) Distance(km) Time Diff (sec)
1 09/18/2021 16:23:34 -80.53, 146.73 99.47 09/18/2021 16:22:27 -80.53, 146.64 99.50 1.66 67
2 09/18/2021 17:13:01 80.51, -45.88 80.51 09/18/2021 17:13:30 80.53, -45.94 80.53 2.20 29
3 09/20/2021 22:46:45 -80.53, 50.90 98.58 09/20/2021 22:46:33 -80.53, 50.87 98.59 0.55 12
4 09/23/2021 04:20:29 80.52, 147.42 82.30 09/23/2021 04:19:44 80.53, 147.51 82.30 1.88 45
5 09/23/2021 05:09:56 -80.52, -44.95 97.69 09/23/2021 05:10:39 -80.52, -44.91 97.67 0.80 43
6 09/25/2021 10:43:39 80.55, 51.86 83.24 09/25/2021 10:43:50 80.52, 51.82 83.22 2.76 11
7 09/27/2021 16:17:24 -80.54, 148.32 95.90 09/27/2021 16:16:53 -80.54, 148.19 95.92 2.45 31
8 09/27/2021 17:06:51 80.51, -44.36 84.06 09/27/2021 17:07:57 80.53, -44.26 84.12 3.14 66
9 09/29/2021 21:51:07 80.55,-114.94 85.02 09/29/2021 21:50:04 80.54,-114.95 84.98 1.46 63



Historial Predications of SNOs between LANDSAT-8 and NOAA-19
